Weather History for KPIR - September, 2012

Change the Weather History Date:

Tuesday, September 18, 2012

  Actual Average Record
Temperature  
Mean Temperature 60 °F 62 °F  
Max Temperature 82 °F 75 °F 104 °F (2000)
Min Temperature 37 °F 48 °F 30 °F (1991)
Degree Days  
Heating Degree Days 5 5  
Month to date heating degree days 32 59  
Since 1 July heating degree days 38 79  
Cooling Degree Days 0 2  
Month to date cooling degree days 90 73  
Year to date cooling degree days 1111 850  
Growing Degree Days 10 (Base 50)    
Moisture  
Dew Point 30 °F    
Average Humidity 37    
Maximum Humidity 59    
Minimum Humidity 15    
Precipitation  
Precipitation 0.00 in 0.06 in 1.16 in (1946)
Month to date precipitation T 1.08  
Year to date precipitation 10.11 16.26  
Sea Level Pressure  
Sea Level Pressure 29.91 in    
Wind  
Wind Speed 6 mph (WSW)    
Max Wind Speed 22 mph    
Max Gust Speed 26 mph    
Visibility 10 miles    
Events      
T = Trace of Precipitation, MM = Missing Value Source: NWS Daily Summary

Daily Weather History Graph

Daily Weather History Graph

Search for Another Location

Airport or City:

Trip Planner

Search our weather history database for the weather conditions in past years. The results will help you decide how hot, cold, wet, or windy it might be!

Date:

Astronomy

Sep. 18, 2012 Rise Set
Actual Time 7:24 AM CDT 7:45 PM CDT
Civil Twilight 6:55 AM CDT 8:14 PM CDT
Nautical Twilight 6:20 AM CDT 8:48 PM CDT
Astronomical Twilight 5:45 AM CDT 9:23 PM CDT
Moon 10:35 AM CDT (9/18) 8:59 PM CDT (9/18)
Length of Visible Light 13h 18m
Length of Day
12h 20m
Waxing Crescent, 9% of the Moon is Illuminated
Sep 18
Waxing Crescent
Sep 22
First Quarter
Sep 29
Full
Oct 8
Last Quarter
Oct 15
New

Hourly Weather History & Observations

Time (CDT) Temp. Windchill Dew Point Humidity Pressure Visibility Wind Dir Wind Speed Gust Speed Precip Events Conditions
12:53 AM 39.9 °F - 25.0 °F 55% 30.10 in 10.0 mi Calm Calm - N/A   Clear
1:53 AM 43.0 °F 41.3 °F 28.0 °F 56% 30.10 in 10.0 mi SW 3.5 mph - N/A   Clear
2:53 AM 37.9 °F - 25.0 °F 60% 30.09 in 10.0 mi Calm Calm - N/A   Clear
3:53 AM 42.1 °F 39.2 °F 26.1 °F 53% 30.08 in 10.0 mi WSW 4.6 mph - N/A   Scattered Clouds
4:53 AM 44.1 °F 42.5 °F 25.0 °F 47% 30.06 in 10.0 mi SW 3.5 mph - N/A   Overcast
5:53 AM 45.0 °F 43.5 °F 23.0 °F 42% 30.05 in 10.0 mi SSW 3.5 mph - N/A   Overcast
6:53 AM 42.1 °F 39.2 °F 26.1 °F 53% 30.04 in 10.0 mi ESE 4.6 mph - N/A   Mostly Cloudy
7:53 AM 44.1 °F - 28.9 °F 55% 30.04 in 10.0 mi Calm Calm - N/A   Partly Cloudy
8:53 AM 48.9 °F - 34.0 °F 56% 30.01 in 10.0 mi Calm Calm - N/A   Scattered Clouds
9:53 AM 55.0 °F - 30.0 °F 38% 30.00 in 10.0 mi ESE 8.1 mph - N/A   Clear
10:53 AM 63.0 °F - 30.0 °F 29% 29.96 in 10.0 mi SSE 8.1 mph - N/A   Clear
11:53 AM 68.0 °F - 30.9 °F 25% 29.94 in 10.0 mi South 11.5 mph - N/A   Clear
12:53 PM 72.0 °F - 32.0 °F 23% 29.91 in 10.0 mi WSW 6.9 mph - N/A   Clear
1:53 PM 73.9 °F - 30.9 °F 21% 29.88 in 10.0 mi SW 8.1 mph - N/A   Clear
2:53 PM 77.0 °F - 30.0 °F 18% 29.84 in 10.0 mi Calm Calm - N/A   Clear
3:32 PM 80.6 °F - 30.2 °F 16% 29.82 in 10.0 mi NW 16.1 mph 24.2 mph N/A   Clear
3:53 PM 81.0 °F - 30.9 °F 16% 29.80 in 10.0 mi NW 19.6 mph 25.3 mph N/A   Clear
4:53 PM 82.0 °F - 32.0 °F 16% 29.78 in 10.0 mi WNW 13.8 mph - N/A   Clear
5:53 PM 82.0 °F - 30.9 °F 16% 29.76 in 10.0 mi WNW 15.0 mph - N/A   Clear
6:53 PM 79.0 °F - 32.0 °F 18% 29.75 in 10.0 mi West 4.6 mph - N/A   Clear
7:53 PM 75.0 °F - 33.1 °F 22% 29.75 in 10.0 mi West 4.6 mph - N/A   Clear
8:53 PM 66.9 °F - 35.1 °F 31% 29.76 in 10.0 mi NW 6.9 mph - N/A   Clear
9:53 PM 63.0 °F - 34.0 °F 34% 29.77 in 10.0 mi WNW 5.8 mph - N/A   Clear
10:53 PM 61.0 °F - 34.0 °F 36% 29.77 in 10.0 mi SW 6.9 mph - N/A   Clear
11:53 PM 63.0 °F - 30.9 °F 30% 29.75 in 10.0 mi WSW 4.6 mph - N/A   Clear